This demonstration page uses our WeatherBlox Daily Observations layout. Learn more.

Left ArrowRight Arrow

39.51506, -84.39828

Hourly Observations for April 2, 2020

Temp ( °F °C ) Dew Point ( °F °C ) Humidity (%) Winds ( mph kmh ) Pressure ( in mb ) Visibility ( mi km ) Precip ( " mm )
12:15 am 00:15 Cloudy 44 6.4 41 4.9 90 90 N N/A 30.14 1021 10 16 N/A
12:35 am 00:35 Cloudy 44 6.5 41 5.2 92 92 N N/A 30.14 1021 10 16 N/A
12:55 am 00:55 Cloudy 44 6.4 41 5.1 92 92 N N/A 30.14 1021 10 16 N/A
1:15 am 01:15 Cloudy 43 6 41 4.9 93 93 N N/A 30.14 1021 10 16 N/A
1:35 am 01:35 Cloudy 42 5.3 40 4.4 94 94 N N/A 30.15 1021 10 16 N/A
1:55 am 01:55 Cloudy 42 5.7 40 4.7 93 93 N N/A 30.15 1021 10 16 N/A
2:15 am 02:15 Partly Cloudy 41 4.9 40 4.3 96 96 N N/A 30.14 1021 10 16 N/A
2:35 am 02:35 Clear 40 4.6 39 3.8 95 95 N N/A 30.14 1021 10 16 N/A
2:55 am 02:55 Clear 41 5 39 3.8 92 92 N N/A 30.14 1021 10 16 N/A
3:15 am 03:15 Clear 41 4.9 39 3.9 93 93 N N/A 30.14 1021 10 16 N/A
3:35 am 03:35 Clear 37 2.6 35 1.6 93 93 N N/A 30.15 1021 10 16 N/A
3:55 am 03:55 Clear 38 3.5 38 3.2 98 98 N N/A 30.15 1021 10 16 N/A
4:15 am 04:15 Clear with Mist and Fog 36 2 35 1.7 98 98 N N/A 30.15 1021 4 6 N/A
4:35 am 04:35 Clear with Mist and Fog 37 2.8 37 2.7 99 99 N N/A 30.15 1021 7 11 N/A
4:55 am 04:55 Clear 36 2.4 36 2.3 99 99 N N/A 30.15 1021 10 16 N/A
5:15 am 05:15 Clear with Mist and Fog 34 1.2 34 1.1 99 99 N N/A 30.16 1021 5 8 N/A
5:35 am 05:35 Clear with Mist and Fog 34 0.9 33 0.8 99 99 N N/A 30.16 1021 2 3 N/A
5:55 am 05:55 Mostly Cloudy with Mist and Fog 35 1.7 35 1.6 99 99 N N/A 30.17 1022 1 2 N/A
6:15 am 06:15 Clear with Mist and Fog 35 1.5 35 1.5 100 100 N N/A 30.17 1022 5 8 N/A
6:35 am 06:35 Clear with Mist and Fog 33 0.8 33 0.8 100 100 N N/A 30.18 1022 7 11 N/A
6:55 am 06:55 Clear with Mist and Fog 33 0.3 33 0.3 100 100 N N/A 30.19 1022 5 8 N/A
7:15 am 07:15 Clear with Mist and Fog 34 1 34 1 100 100 N N/A 30.19 1022 4 6 N/A
7:35 am 07:35 Mostly Cloudy with Mist and Fog 32 undefined 32 undefined 100 100 N N/A 30.21 1023 1 2 N/A
7:55 am 07:55 Partly Cloudy with Mist and Fog 34 1 34 1 100 100 N N/A 30.21 1023 4 6 N/A
8:15 am 08:15 Mostly Cloudy with Mist and Fog 34 0.9 34 0.9 100 100 N N/A 30.22 1023 4 6 N/A
8:35 am 08:35 Cloudy with Fog 36 2 36 2 100 100 N N/A 30.22 1023 N/A N/A
8:55 am 08:55 Partly Cloudy with Mist and Fog 39 4 N/A N/A N N/A 30.22 1024 2 3 N/A
9:15 am 09:15 Sunny 42 5.6 41 5.2 97 97 N N/A 30.22 1023 10 16 N/A
9:35 am 09:35 Sunny 44 6.6 41 5 90 90 N N/A 30.22 1023 7 11 N/A
9:55 am 09:55 Sunny 46 7.8 41 4.8 82 82 N N/A 30.21 1023 10 16 N/A
10:15 am 10:15 Sunny 48 9.1 41 4.8 75 75 NE 3 6 30.22 1023 10 16 N/A
10:35 am 10:35 Sunny 50 10 40 4.4 68 68 NNE 5 7 30.22 1023 10 16 N/A
10:55 am 10:55 Sunny 51 10.3 39 3.7 64 64 N 5 7 30.22 1023 10 16 N/A
11:15 am 11:15 Sunny 52 11.1 39 3.7 61 61 NE 6 9 30.21 1023 10 16 N/A
11:35 am 11:35 Mostly Cloudy 53 11.9 37 3 55 55 NNE 8 13 30.20 1023 10 16 N/A
11:55 am 11:55 Mostly Cloudy 53 11.8 38 3.1 56 56 NNW 7 11 30.20 1023 10 16 N/A
12:15 pm 12:15 Partly Cloudy 53 11.9 37 2.8 54 54 N N/A 30.20 1023 10 16 N/A
12:35 pm 12:35 Partly Cloudy 54 12.4 33 0.8 45 45 E 3 6 30.19 1022 10 16 N/A
12:55 pm 12:55 Partly Cloudy 55 12.5 35 1.5 47 47 N 6 9 30.19 1022 10 16 N/A
1:15 pm 13:15 Sunny 56 13.3 35 1.9 46 46 WNW 9 15 30.18 1022 10 16 N/A
1:35 pm 13:35 Partly Cloudy 55 13 36 2 47 47 NNE 7 11 30.17 1022 10 16 N/A
1:55 pm 13:55 Partly Cloudy 57 13.7 36 2.1 46 46 NNE 5 7 30.16 1021 10 16 N/A
2:15 pm 14:15 Sunny 57 13.9 37 2.5 46 46 NNW 7 11 30.16 1021 10 16 N/A
2:35 pm 14:35 Partly Cloudy 58 14.4 37 2.9 46 46 NE 10 17 30.14 1021 10 16 N/A
2:55 pm 14:55 Sunny 58 14.2 36 2.2 45 45 N 9 15 30.14 1021 10 16 N/A
3:15 pm 15:15 Sunny 58 14.5 37 2.5 45 45 NNE 5 7 30.13 1020 10 16 N/A
3:35 pm 15:35 Sunny 58 14.7 37 2.7 45 45 NW 9 15 30.12 1020 10 16 N/A
3:55 pm 15:55 Sunny 59 14.9 37 2.5 43 43 NW 7 11 30.12 1020 10 16 N/A
4:15 pm 16:15 Sunny 59 14.8 37 2.6 44 44 N N/A 30.11 1020 10 16 N/A
4:35 pm 16:35 Sunny 59 14.9 36 2.1 42 42 N N/A 30.10 1019 10 16 N/A
5:55 pm 17:55 Sunny 59 14.9 36 2.4 43 43 N 8 13 30.10 1019 10 16 N/A
9:35 pm 21:35 Clear 43 6 38 3.5 84 84 N N/A 30.14 1021 10 16 N/A
9:55 pm 21:55 Clear 43 6 38 3.6 85 85 N N/A 30.14 1021 10 16 N/A
10:15 pm 22:15 Clear 44 6.5 40 4.2 85 85 N 3 6 30.14 1021 10 16 N/A
10:35 pm 22:35 Clear 42 5.7 39 3.8 88 88 NNE 3 6 30.13 1020 10 16 N/A
10:55 pm 22:55 Clear 42 5.8 39 3.9 88 88 N N/A 30.13 1020 10 16 N/A
11:15 pm 23:15 Clear 41 5.2 38 3.3 88 88 N N/A 30.13 1020 10 16 N/A
11:35 pm 23:35 Clear 41 4.9 38 3.4 90 90 N N/A 30.13 1020 10 16 N/A
11:55 pm 23:55 Clear 40 4.7 37 3 89 89 N N/A 30.14 1021 10 16 N/A

Powered by AerisWeather